Regional Weather Roundup
Issued by NWS

Home | Current Version | Previous Version | Text Only | Print | Product List | Glossary Off
Versions: 1 2 3 4 5 6 7 8 9 10 11 12 13 14 15 16 17 18 19 20 21 22 23 24 25 26 27 28 29 30 31 32 33 34 35 36 37 38 39 40 41 42 43 44 45 46 47 48 49 50

000
ASUS43 KLMK 231610
RWRKY
KENTUCKY REGIONAL WEATHER ROUNDUP
NATIONAL WEATHER SERVICE LOUISVILLE KY
1200 PM EDT FRI JUN 23 2017

NOTE "FAIR" INDICATES FEW OR NO CLOUDS BELOW 12,000 FEET
WITH NO SIGNIFICANT WEATHER AND/OR OBSTRUCTIONS TO VISIBILITY.

KYZ001>023-026-027-061>063-070>075-231700-
WESTERN AND SOUTH CENTRAL KENTUCKY

CITY           SKY/WX    TMP DP  RH WIND       PRES   REMARKS
PADUCAH        LGT RAIN  76  72  87 NE3       29.71S FOG
HENDERSON      RAIN      75  73  93 SW5       29.74S
OWENSBORO      CLOUDY    79  73  82 S13       29.73F
HOPKINSVILLE   RAIN      77  72  83 S10       29.74F
BOWLING GREEN  PTSUNNY   83  72  69 S15       29.78F
GLASGOW        PTSUNNY   82  69  65 SW10G22   29.80F
$$

KYZ024-025-028>034-038-045-046-053-231700-
NORTH CENTRAL KENTUCKY

CITY           SKY/WX    TMP DP  RH WIND       PRES   REMARKS
LOUISVILLE/SDF CLOUDY    81  72  74 S12G21    29.77S
LOUISVILLE/LOU CLOUDY    81  72  74 S10G18    29.77S
FORT KNOX      PTSUNNY   80  71  72 S17G28    29.77F
$$

KYZ035>037-039>044-047>052-055>060-089>105-231700-
NORTHEAST KENTUCKY

CITY           SKY/WX    TMP DP  RH WIND       PRES   REMARKS
LEXINGTON      CLOUDY    82  68  62 SW20G29   29.82S
COVINGTON      CLOUDY    81  72  74 SW9G20    29.75F
FRANKFORT      PTSUNNY   81  70  69 SW17G24   29.80R
$$

KYZ054-064>069-076>088-106>120-231700-
SOUTHEAST KENTUCKY

CITY           SKY/WX    TMP DP  RH WIND       PRES   REMARKS
JACKSON        CLOUDY    78  71  79 VRB5      29.89F
LONDON         CLOUDY    78  71  79 SW10G21   29.89F
SOMERSET       HVY RAIN  73  70  88 S6        29.89S
MIDDLESBORO    DRIZZLE   75  70  85 SW7G16    29.93F
MONTICELLO     LGT RAIN  77  73  87 W8G17     29.89F
$$




USA.gov is the U.S. government's official web portal to all federal, state and local government web resources and services.